Wildfire 1

operational
NORAD ID: 57764 Int'l Des: 2023-133 Owner: SDA Country: US
LEOCIRCULARPOLAR

About Wildfire 1

Description loading...

Live Position

Loading 3D Globe...

Upcoming Passes

Altitude History

Altitude vs Time

uPlot chart will show altitude changes over time

Two-Line Element Set

1 57764U 23133H 26102.61754628 .00000064 00000-0 46346-4 0 9998
2 57764 80.9981 69.9598 0006447 167.7572 192.3743 13.85721127131975
Epoch: Apr 12, 2026 • Age: 15 hours

Current Status

Altitude 965.8 km
Velocity 7.37 km/s
Sub-Earth Point -60.71°S, 23.47°W
Launch Date Sep 2, 2023
Age 2.6 years
Type other

Technical Details

Classification Payload
Mass 300.00 kg
Dry Mass 300.00 kg
Total Mass 300.00 kg
Length 1.00 m
Diameter 0.40 m
Span 2.50 m
Shape Box + 2 panels
Manufacturer TYVAK/LMSSD
Bus Type Mavericks
Phase Status In Orbit
Owner/State SDA/US

Large Constellations

Loading constellations...